www.pogodaiklimat.ru
ПОГОДА в Биндерслебене
Время
(UTC), дата
16 7.11
17 7.11
18 7.11
19 7.11
20 7.11
21 7.11
22 7.11
23 7.11
00 8.11
01 8.11
02 8.11
03 8.11
04 8.11
05 8.11
06 8.11
07 8.11
08 8.11
09 8.11
10 8.11
11 8.11
12 8.11
13 8.11
14 8.11
15 8.11
16 8.11
17 8.11
18 8.11
19 8.11
20 8.11
21 8.11
22 8.11
23 8.11
00 9.11
01 9.11
02 9.11
03 9.11
04 9.11
05 9.11
06 9.11
07 9.11
08 9.11
09 9.11
10 9.11
11 9.11
12 9.11
13 9.11
14 9.11
15 9.11
16 9.11
17 9.11
18 9.11
19 9.11
20 9.11
21 9.11
22 9.11
23 9.11
00 10.11
01 10.11
02 10.11
03 10.11
04 10.11
05 10.11
06 10.11
07 10.11
08 10.11
09 10.11
10 10.11
11 10.11
12 10.11
13 10.11
14 10.11
15 10.11
16 10.11
17 10.11
18 10.11
20 10.11
21 10.11
22 10.11
23 10.11
00 11.11
01 11.11
02 11.11
03 11.11
04 11.11
05 11.11
07 11.11
08 11.11
09 11.11
10 11.11
11 11.11
12 11.11
13 11.11
14 11.11
15 11.11
16 11.11
17 11.11
18 11.11
19 11.11
20 11.11
21 11.11
22 11.11
23 11.11
00 12.11
01 12.11
02 12.11
03 12.11
04 12.11
05 12.11
06 12.11
07 12.11
08 12.11
09 12.11
10 12.11
11 12.11
12 12.11
13 12.11
14 12.11
15 12.11
16 12.11
17 12.11
18 12.11
19 12.11
20 12.11
21 12.11
22 12.11
23 12.11
00 13.11
01 13.11
02 13.11
03 13.11
04 13.11
05 13.11
06 13.11
07 13.11
08 13.11
09 13.11
10 13.11
11 13.11
12 13.11
13 13.11
14 13.11
15 13.11
17 13.11
18 13.11
19 13.11
21 13.11
00 14.11
01 14.11
02 14.11
03 14.11
04 14.11
05 14.11
06 14.11
07 14.11
09 14.11
10 14.11
11 14.11
12 14.11
13 14.11
14 14.11
15 14.11
Ветер
(напр.,м/с)
Видим. Явления Облачность Т
(С)
Тd
(С)
f
(%)
Тe
(С)
Тes
(С)
Комфортность P
(гПа)
Po
(гПа)
Тmin
(С)
Tmax
(С)
R
(мм)
R24
(мм)
S
(см)
Ю 6 50 км 10/6 930 м
[Sc Ac As]
+9.1 +4.4 72 +6 +6 тепло 1001.5 963.5
Ю 6 50 км 9/9 600 м
[Cu Sc]
+8.3 +4.2 75 +4 +4 по сезону 1002.5 964.3
ЮЗ 7 50 км 8/8 600 м
[Sc]
+8.6 +4.2 74 +4 +4 по сезону 1002.4 964.3 +7.1 +11.1
ЮЗ 8-10
{11}
70 км 4/0
[Ac und]
+7.7 +3.9 77 +3 +3 по сезону 1003.2 964.9
ЮЗ 7-9
{11}
>70 км 3/3 1300 м
[Sc]
+7.5 +3.6 76 +3 +3 по сезону 1003.7 965.4
З 4 35 км дождь 10/0 700 м
[As op]
+8.0 +4.6 79 +5 +5 тепло 1005.0 966.7 0.0
ЮЗ 4 70 км в посл. час дождь 6/3 1380 м
[Sc Ac trans Cs]
+6.3 +4.1 86 +3 +3 по сезону 1005.5 967.0
ЮЗ 3 70 км 9/1 1080 м
[Sc As trans]
+5.8 +3.8 87 +2 +2 по сезону 1006.0 967.4
ЮЗ 2 60 км {дождь} 10/0
[As op]
+5.4 +3.0 85 +3 +3 по сезону 1006.5 967.8 0.2
ЮЗ 3-4
{4}
60 км 10/0
[As op]
+5.4 +3.1 85 +2 +2 по сезону 1007.1 968.4
Ю 4 50 км 8/0
[As trans Cs]
+4.9 +2.7 86 +1 +1 по сезону 1007.3 968.5
Ю 3 50 км 10/0
[As op]
+5.0 +3.0 87 +1 +1 по сезону 1007.1 968.3
Ю 3-3
{4}
50 км 10/0
[As op]
+4.1 +2.3 88 0 0 по сезону 1007.0 968.1
ЮЗ 2-2
{3}
50 км 10/0
[Ac As]
+4.1 +2.6 90 +1 +1 по сезону 1007.0 968.1
ЮВ 1 50 км 10/6 600 м
[Sc Ac As]
+4.6 +3.1 90 +3 +3 по сезону 1007.3 968.5 +3.9 +8.4 0.2
В 2 40 км 10/9 1000 м
[Sc]
+4.2 +3.3 94 +1 +1 по сезону 1007.5 968.6
Ю 2 35 км в посл. час дождь 10/9 1000 м
[Sc]
+4.7 +3.6 93 +2 +2 по сезону 1008.0 969.1
В 1 35 км слаб. дождь 10/6 1000 м
[Sc Ac As]
+6.4 +4.0 85 +5 +6 тепло 1007.2 968.6 0.0
С 2 40 км в посл. час дождь 9/6 1500 м
[Sc Ac As]
+5.9 +4.5 91 +3 +4 по сезону 1007.2 968.5
С 3 30 км в посл. час дождь 9/9 1080 м
[Sc]
+5.5 +4.5 93 +2 +2 по сезону 1006.9 968.2
С 2 15 км слаб. дождь 10/4 1200 м
[Sc As op]
+5.6 +4.6 93 +3 +3 по сезону 1006.5 967.8 0.1
С 3 8000 м слаб. дождь 10/6 60 м
[Sc As op]
+5.6 +5.0 96 +2 +2 по сезону 1005.9 967.3
С 4 8000 м слаб. дождь 10/6 90 м
[Frnb As op]
+5.6 +5.1 97 +1 +2 по сезону 1005.9 967.3
С 3 5000 м дождь 10/9 120 м
[Frnb]
+5.6 +5.3 98 +2 +2 по сезону 1006.0 967.4 3
С 5 2000 м дождь 10/9 60 м
[Frnb]
+5.5 +5.2 98 +1 +1 по сезону 1005.6 967.0
С 5 3000 м дождь 10/10 30 м
[Frnb]
+5.5 +5.3 99 +1 +1 по сезону 1005.5 966.9
С 4 1600 м дождь 10/10 <50 м
[Frnb]
+5.5 +5.3 99 +1 +1 по сезону 1006.0 967.3 +4.2 +6.7 4
С 4 6000 м дождь 10/10 60 м
[Frnb]
+5.2 +4.8 97 +1 +1 по сезону 1006.2 967.5
С 5-6
{6}
8000 м слаб. дождь 10/9 270 м
[Frnb]
+5.1 +4.6 97 0 0 по сезону 1006.5 967.8
С 4 8000 м слаб. дождь 10/10 180 м
[Sc]
+5.1 +4.6 97 +1 +1 по сезону 1006.5 967.8 3
С 3-5
{5}
9000 м слаб. дождь 10/10 270 м
[Frnb]
+5.1 +4.6 97 +1 +1 по сезону 1006.4 967.7
СЗ 3-4
{5}
14 км в посл. час дождь 10/10 270 м
[Frnb]
+5.1 +4.3 95 +1 +1 по сезону 1006.5 967.8
СЗ 3 20 км в посл. час дождь 10/10 200 м
[St]
+5.1 +4.2 94 +1 +1 по сезону 1006.7 968.0 3
З 2-3
{4}
15 км слаб. дождь 10/10 240 м
[Frnb]
+5.1 +4.4 95 +2 +2 по сезону 1006.7 968.0
З 3-4
{4}
4000 м дождь 10/10 240 м
[Frnb]
+5.0 +4.6 97 +1 +1 по сезону 1006.9 968.1
З 4 14 км дождь 10/10 270 м
[Frnb]
+4.7 +4.1 96 0 0 по сезону 1006.8 968.0 0.1
З 4 14 км слаб. дождь 10/10 120 м
[Frnb]
+4.7 +4.1 96 0 0 по сезону 1007.5 968.7
З 5 22 км слаб. дождь 10/10 300 м
[Sc]
+4.3 +3.1 92 -1 -1 по сезону 1007.7 968.8
З 5 12 км слаб. дождь 10/10 100 м
[Sc]
+4.0 +3.2 95 -1 -1 по сезону 1008.2 969.2 +4.0 +5.5 3
З 5 15 км слаб. дождь 10/9 180 м
[Sc]
+3.7 +3.0 95 -2 -2 по сезону 1008.7 969.7
З 5-7
{7}
20 км дождь 10/9 240 м
[Frnb]
+3.7 +2.7 93 -2 -2 по сезону 1009.2 970.2
З 4 25 км дождь 9/9 240 м
[Sc]
+4.3 +3.4 94 -0 -0 по сезону 1009.2 970.2 0.2
З 6 25 км в посл. час дождь 9/9 240 м
[Cu Sc]
+4.8 +3.1 89 -1 -0 по сезону 1009.4 970.5
З 5 40 км 9/9 270 м
[Cu Sc]
+5.3 +3.2 86 +1 +1 по сезону 1009.1 970.3
З 7 40 км {дождь} 9/9 450 м
[Cu Sc]
+5.9 +2.8 80 +1 +1 по сезону 1009.0 970.3 0.0
ЮЗ 4 40 км 8/8 700 м
[Cu Sc]
+6.0 +2.4 78 +2 +3 по сезону 1009.0 970.3
ЮЗ 5 40 км 8/8 750 м
[Cu Sc]
+6.5 +2.5 76 +2 +3 по сезону 1009.2 970.5
ЮЗ 4 40 км 9/9 900 м
[Cu Sc]
+6.2 +2.3 76 +3 +3 по сезону 1009.5 970.8
ЮЗ 3 40 км в посл. час дождь 9/9 1000 м
[Cu Sc]
+5.6 +2.6 81 +2 +2 по сезону 1009.8 971.0
ЮЗ 3 40 км в посл. час дождь 9/9 1000 м
[Cu Sc]
+4.6 +1.8 82 +1 +1 по сезону 1009.9 970.9
ЮЗ 2 50 км {дождь} 5/1 1000 м
[Sc Ac trans]
+3.8 +1.6 86 +1 +1 по сезону 1010.1 971.0 +3.5 +6.8 0.0
Ю 3-4
{5}
50 км 6/0
[Ac und]
+3.2 +1.1 86 -1 -1 по сезону 1010.4 971.2
Ю 4-4
{5}
50 км 3/0
[Ac trans]
+2.5 +0.8 89 -2 -2 по сезону 1010.6 971.3
Ю 4 50 км 1/0
[Ac trans]
+2.3 +0.6 89 -3 -3 прохладно 1010.6 971.3
Ю 5-6
{6}
50 км ясно +2.3 +0.6 89 -3 -3 прохладно 1010.6 971.3
Ю 4-4
{6}
40 км ясно +1.3 0.0 91 -4 -4 прохладно 1010.9 971.4
ЮЗ 4 30 км ясно +0.5 -0.7 92 -5 -5 холодно 1011.2 971.6
Ю 3-3
{4}
30 км ясно +0.1 -1.0 92 -5 -5 холодно 1011.3 971.6
Ю 3-4
{4}
30 км ясно +0.3 -0.7 93 -4 -4 прохладно 1011.1 971.5
Ю 3 30 км 1/1 1500 м
[Sc]
+0.3 -0.7 93 -4 -4 прохладно 1011.3 971.7
Ю 3-3
{4}
25 км 6/6 1500 м
[Sc]
0.0 -0.9 94 -5 -5 холодно 1011.9 972.2
Ю 3-3
{3}
25 км 6/6 2000 м
[Sc]
-0.2 -1.2 93 -5 -5 холодно 1012.3 972.6
Ю 3 25 км 9/9 1500 м
[Sc]
+1.5 +0.2 91 -3 -3 прохладно 1012.3 972.8 -0.4 +3.9
Ю 3 35 км 8/8 1500 м
[Sc]
+1.1 -0.1 92 -3 -3 прохладно 1013.0 973.4
ЮЗ 1 35 км 6/6 1500 м
[Sc]
+1.2 +0.2 93 -1 -1 по сезону 1013.5 973.9
ЮВ 1 28 км 3/3 2000 м
[Sc]
+3.6 +1.1 84 +2 +3 по сезону 1013.3 974.1
Ю 1-2
{2}
22 км 3/3 2000 м
[Sc]
+4.5 +1.4 80 +3 +5 по сезону 1013.8 974.7
ЮЗ 1-2
{4}
25 км 1/1 300 м
[Cu Sc]
+5.9 +1.9 75 +5 +8 тепло 1013.5 974.6
С 1 30 км 1/1 480 м
[Cu Sc]
+6.6 +2.3 74 +6 +8 тепло 1013.6 974.8
С 2 35 км 5/3 480 м
[Cu med, cong Ac und]
+6.6 +2.9 77 +4 +5 по сезону 1013.8 975.0
СВ 2-3
{3}
35 км 4/4 480 м
[Cu Sc]
+6.3 +3.1 80 +4 +5 по сезону 1014.3 975.4
С 2 35 км 8/8 600 м
[Cu Sc]
+5.3 +3.6 89 +3 +3 по сезону 1014.7 975.7
СВ 1 25 км 9/9 1000 м
[Cu Sc]
+5.0 +3.5 90 +4 +4 по сезону 1015.3 976.2
штиль 0-1
{2}
20 км 4/4 800 м
[Cu Sc]
+4.4 +3.7 95 +3 +3 по сезону 1015.9 976.7
З 2 20 км местами туман поземный 5/5 600 м
[Cu Sc]
+3.4 +2.7 95 0 0 по сезону 1016.5 977.1 +0.7 +6.9
Ю 3-4
{4}
4000 м туман на расстоянии туман 1/1 1500 м
[Sc]
+1.3 +0.8 96 -3 -3 прохладно 1016.7 977.0
ЮЗ 4-4
{4}
12 км местами туман поземный ясно -0.2 -0.5 98 -6 -6 холодно 1017.0 977.1
ЮЗ 4-5
{5}
25 км ясно 0.0 -1.5 90 -6 -6 холодно 1016.9 977.0
З 4-5
{5}
200 м переохл. туман ясно -0.3 -0.5 99 -6 -6 холодно 1016.9 977.0
ЮЗ 4-4
{5}
400 м переохл. туман ясно -1.2 -1.3 99 -7 -7 холодно 1016.9 976.8 0.0
ЮЗ 3-4
{4}
900 м переохл. туман ясно -1.6 -1.6 100 -7 -7 холодно 1016.7 976.6
ЮЗ 3-3
{3}
700 м переохл. туман ясно -2.3 -2.5 99 -8 -8 очень
холодно
1016.5 976.3
Ю 2-3
{4}
1000 м туман местами ясно -1.2 -1.3 99 -5 -5 холодно 1016.6 976.5 0.0
Ю 3-3
{3}
20 км в посл. час туман 1/0
[Ci]
-2.2 -2.6 97 -8 -8 очень
холодно
1016.1 975.9
Ю 2-3
{3}
20 км 3/0
[Ci]
-1.3 -1.7 97 -5 -5 холодно 1015.6 975.6
Ю 3-4
{5}
25 км 5/0
[Ci]
-1.7 -2.6 94 -7 -7 холодно 1014.8 974.7
Ю 4-6
{6}
25 км 5/0
[Ci fib]
-0.5 -1.5 93 -6 -6 холодно 1014.2 974.3
Ю 6 25 км 8/0
[Ci]
+0.8 -0.3 92 -6 -5 холодно 1013.2 973.6
Ю 5 30 км 8/1 800 м
[Cu hum Ci fib]
+2.6 -0.5 80 -3 -2 прохладно 1012.3 973.0
Ю 5 30 км 8/4 450 м
[Cu hum Ci fib]
+4.3 0.0 74 -0 0 по сезону 1011.1 972.0
Ю 7 25 км 6/3 480 м
[Cu hum Ci fib]
+3.8 +0.1 77 -2 -2 по сезону 1010.0 970.9
Ю 5 30 км 6/3 540 м
[Cu Sc Ci fib]
+3.8 -0.4 74 -1 -0 по сезону 1009.3 970.2
Ю 4-6
{7}
30 км 4/1 600 м
[Cu hum Ac cast Ci fib]
+4.3 -0.1 73 0 +1 по сезону 1008.5 969.5
Ю 4 35 км 4/0
[Ac und Ci fib]
+2.9 -0.9 76 -2 -2 по сезону 1008.4 969.2
Ю 3-4
{5}
35 км 8/0
[Ac und]
+1.6 -1.2 82 -3 -3 прохладно 1007.8 968.5
Ю 4-6
{6}
30 км 9/0
[Ac und]
+1.7 -1.3 80 -3 -3 прохладно 1007.6 968.3
Ю 4 25 км 9/0
[Ac As]
+2.0 -0.8 82 -3 -3 прохладно 1007.8 968.5 -2.9 +4.8
Ю 5-6
{7}
25 км 10/0
[Ac As]
+2.3 -0.5 82 -3 -3 прохладно 1007.1 967.9
Ю 8-11
{11}
22 км 10/9 1500 м
[Sc]
+3.0 -0.5 78 -3 -3 прохладно 1006.5 967.4
Ю 6 18 км 10/0
[Ac As]
+2.7 -0.4 80 -3 -3 прохладно 1006.5 967.4
Ю 6-8
{9}
18 км 10/0
[Ac As]
+2.5 -0.5 81 -3 -3 прохладно 1005.9 966.8
Ю 5-7
{7}
20 км 10/0
[Ac As]
+2.4 -0.6 81 -3 -3 прохладно 1006.5 967.4
Ю 4 18 км 10/8 660 м
[Sc Ac As]
+2.2 -0.4 83 -3 -3 прохладно 1006.7 967.5
Ю 5 16 км 10/6 630 м
[Sc Ac As]
+2.4 -0.3 82 -3 -3 прохладно 1006.3 967.2
Ю 4-5
{6}
16 км 10/9 800 м
[Sc]
+2.7 0.0 82 -2 -2 по сезону 1006.6 967.5
ЮЗ 4 20 км 10/9 600 м
[Sc]
+2.6 0.0 83 -2 -2 по сезону 1006.7 967.6
Ю 6 25 км 10/4 540 м
[Cu Sc Ac As]
+2.8 +0.1 82 -3 -3 прохладно 1006.6 967.5
Ю 6 35 км 6/1 1200 м
[Sc Ac trans]
+3.0 +0.1 81 -3 -3 прохладно 1006.6 967.5
Ю 5 30 км 4/1 600 м
[Sc Ac trans Ci]
+2.4 -0.1 84 -3 -3 прохладно 1007.1 967.9 +1.9 +3.1
Ю 5 40 км 5/5 600 м
[Cu Sc]
+2.2 -0.2 84 -3 -3 прохладно 1007.4 968.2
Ю 5-6
{6}
40 км 3/3 1080 м
[Sc]
+2.5 -0.3 82 -3 -3 прохладно 1007.6 968.4
Ю 5 45 км в посл. час дождь 3/3 750 м
[Cu Sc]
+5.0 +0.9 75 +1 +1 по сезону 1006.8 968.0 0.0
ЮЗ 10-13
{13}
50 км 3/3 750 м
[Cu Sc]
+6.4 +0.4 65 +1 +1 по сезону 1006.1 967.5
ЮЗ 8-12
{15}
50 км 3/3 900 м
[Cu Sc]
+6.8 +0.6 65 +2 +2 по сезону 1005.5 967.0
ЮЗ 6 50 км {дождь} 8/8 900 м
[Cu Sc]
+6.4 +0.6 66 +2 +2 по сезону 1005.3 966.8
Ю 7 50 км 6/6 1000 м
[Cu Sc]
+7.4 +0.8 63 +3 +3 по сезону 1005.2 966.8
ЮВ 5-6
{8}
50 км 3/3 1000 м
[Cu Sc]
+6.6 +1.2 68 +3 +3 по сезону 1005.0 966.5
Ю 6-8
{10}
50 км 3/3 1000 м
[Cu Sc]
+5.6 +0.5 70 +1 +1 по сезону 1004.7 966.1
Ю 6-8
{8}
50 км 5/5 1080 м
[Cu Sc]
+5.1 +0.5 72 0 0 по сезону 1004.7 966.0
Ю 7-10
{11}
50 км 4/4 1500 м
[Sc]
+4.6 +0.4 74 -1 -1 по сезону 1004.6 965.8
Ю 6 50 км 8/8 1500 м
[Sc]
+4.0 +0.6 78 -1 -1 по сезону 1004.2 965.4 +1.8 +7.4
Ю 8 40 км 9/9 1300 м
[Sc]
+4.6 +0.8 76 -1 -1 по сезону 1004.1 965.4
Ю 7-9
{9}
45 км 9/9 1500 м
[Sc]
+4.7 +0.9 76 -1 -1 по сезону 1004.5 965.8
Ю 7 35 км 9/9 1230 м
[Sc]
+4.4 +1.0 79 -1 -1 по сезону 1004.6 965.8
ЮЗ 6 35 км в посл. час дождь 9/5 1080 м
[Sc Ac trans]
+3.9 +1.0 81 -2 -2 по сезону 1003.5 964.7
Ю 3-4
{6}
35 км 10/0
[As trans]
+3.1 +0.8 85 -1 -1 по сезону 1003.7 964.8
Ю 5 40 км {дождь} 10/0
[As trans]
+3.3 +0.6 82 -2 -2 по сезону 1003.6 964.7 0.0
Ю 5-6
{6}
40 км 10/0
[As trans]
+3.2 +0.4 82 -2 -2 по сезону 1003.3 964.4
Ю 4-6
{6}
40 км 10/0
[As trans]
+2.9 +0.4 84 -2 -2 по сезону 1003.1 964.2
Ю 4 40 км 10/0
[As trans]
+3.0 +0.4 83 -2 -2 по сезону 1002.3 963.4
ЮЗ 4 40 км 10/0
[Ac trans Cs]
+2.0 -0.2 85 -3 -3 прохладно 1002.9 963.8
ЮЗ 3-4
{5}
40 км 9/0
[As trans]
+2.0 0.0 87 -2 -2 по сезону 1002.9 963.8
ЮЗ 2 40 км 9/5 600 м
[Sc As trans]
+1.8 +0.2 89 -2 -2 по сезону 1003.3 964.2 +1.7 +4.8
ЮЗ 3 40 км 8/5 800 м
[Sc As trans Cs]
+2.0 -0.1 86 -2 -2 по сезону 1003.4 964.3
ЮЗ 4 40 км 8/3 700 м
[Sc Ac lent Cs]
+2.3 0.0 85 -3 -3 прохладно 1003.3 964.3
Ю 4 40 км 8/1 700 м
[Sc Ac trans Cs]
+4.1 +0.7 78 -0 0 по сезону 1003.3 964.5
ЮЗ 6 60 км 8/1 900 м
[Sc Ac trans Cs]
+5.4 +0.6 71 +1 +1 по сезону 1003.1 964.5
ЮЗ 5 60 км 8/3 630 м
[Cu hum Ac trans Cs]
+5.2 +0.1 70 +1 +1 по сезону 1003.1 964.5
ЮЗ 5 70 км 9/6 870 м
[Sc Ci sp]
+6.7 +0.4 64 +3 +3 по сезону 1003.0 964.6
ЮЗ 5-6
{9}
50 км 9/9 800 м
[Sc]
+5.5 -0.1 67 +1 +1 по сезону 1002.8 964.2
ЮЗ 5-7
{7}
40 км 8/8 840 м
[Sc]
+5.2 +0.2 70 +1 +1 по сезону 1003.1 964.5
ЮЗ 5 40 км 9/9 840 м
[Sc]
+5.1 +0.2 71 +1 +1 по сезону 1003.6 964.9
ЮЗ 5-6
{8}
40 км 9/9 700 м
[Sc]
+4.2 +0.7 78 -1 -1 по сезону 1004.3 965.5
ЮЗ 5 40 км 8/6 600 м
[Sc Ci fib]
+3.3 +0.5 82 -2 -2 по сезону 1004.3 965.4 +1.2 +7.1
ЮЗ 5-6
{7}
40 км 5/4 600 м
[Sc Ci fib]
+2.4 0.0 84 -3 -3 прохладно 1004.8 965.7
ЮЗ 4 35 км 6/6 1500 м
[Sc]
+2.6 +0.5 86 -2 -2 по сезону 1005.2 966.1
Ю 4 40 км 8/8 1500 м
[Sc]
+2.6 +0.4 85 -2 -2 по сезону 1005.5 966.4
Ю 4-5
{5}
40 км 6/6 1500 м
[Sc]
+2.6 +0.4 85 -2 -2 по сезону 1005.5 966.4
Ю 5-6
{6}
40 км 4/4 1500 м
[Sc]
+2.1 +0.2 87 -3 -3 прохладно 1005.4 966.3
Ю 4 30 км 8/8 1500 м
[Sc]
+2.2 +0.3 87 -3 -3 прохладно 1005.5 966.4
Ю 4-4
{5}
35 км 3/3 1500 м
[Sc]
+1.9 +0.1 88 -3 -3 прохладно 1005.6 966.4
Ю 4-6
{6}
30 км 1/1 1500 м
[Sc]
+2.3 +0.4 87 -3 -3 прохладно 1005.7 966.6
Ю 4 30 км ясно +2.4 +0.1 85 -2 -2 по сезону 1006.0 966.9 +1.5 +3.6
Ю 5-6
{7}
30 км 1/0
[Ci]
+2.1 +0.1 87 -3 -3 прохладно 1006.6 967.4
Ю 7 30 км 3/0
[Ci sp]
+4.3 +1.1 80 -1 -1 по сезону 1007.6 968.7
ЮВ 5-8
{9}
30 км 6/0
[Ci]
+4.9 +0.8 75 0 +1 по сезону 1007.5 968.7
Ю 4-6
{7}
35 км 9/0
[Cs]
+6.0 +0.7 69 +2 +4 по сезону 1007.2 968.5
ЮВ 4 45 км 9/0
[Cs]
+6.6 +0.5 65 +3 +5 по сезону 1007.0 968.4
В 3-5
{5}
60 км 9/0
[Cs]
+7.0 +0.7 64 +4 +5 по сезону 1006.7 968.2
ЮВ 6-8
{9}
50 км 5/0
[Cs]
+7.3 +0.6 62 +3 +4 по сезону 1006.5 968.0
В 4 60 км 8/0
[Cs]
+5.4 -0.1 68 +2 +2 по сезону 1006.3 967.6
Местоположение метеостанции Биндерслебен (Германия): широта 50.98 долгота 10.97 высота над уровнем моря 323 м.
В архиве по умолчанию представлена погода в Биндерслебене за последнюю неделю. Архивные данные за месяц целиком и за предыдущие месяцы, начиная с января 2011 года, Вы можете получить, выбрав интересующий диапазон дат из раскрывающегося списка и нажав кнопку "Найти!".
*Определитесь, кто Вы:
Внимание! Время в таблицах - всемирное. Для получения местного времени необходимо прибавить поправку, которая равна 1 ч.
Смотрите также архив погоды в соседних городах и на ближайших метеорологических станциях:
Партнеры нашего сайта:      
Пояснения к столбцам:
  • Ветер - указаны скорость ветра в м/с - средняя за 10 мин, порывы в срок и между сроками (в фигурных скобках) и направление, откуда дует ветер: С - северный,
  • СВ - северо-восточный, В - восточный, ЮВ - юго-восточный, Ю - южный, ЮЗ - юго-западный, З - западный, СЗ - северо-западный.
  • Видимость - горизонтальная дальность видимости в метрах или километрах. При видимости от 1 до 10 км при отсутствии осадков обычно наблюдается дымка, при ухудшении видимости до 1 км и менее - туман. В сухую погоду видимость может ухудшаться дымом, пылью или мглою.
  • Явления - указаны атмосферные явления, наблюдавшиеся в срок или в последний час перед сроком; фигурными скобками обозначены явления, наблюдавшиеся между сроками (за 1-3 часа до срока); квадратными скобками обозначены град или гололедные отложения с указанием их диаметра в мм.
  • Облачность - указаны через наклонную черту общая и нижняя облачность в баллах и высота нижней границы облаков в метрах; квадратными скобками обозначены формы облаков: Ci - перистые, Cs - перисто-слоистые, Cc - перисто-кучевые, Ac - высококучевые, As - высокослоистые, Sc - слоисто-кучевые, Ns - слоисто-дождевые, Cu - кучевые, Cb - кучево-дождевые. Подробнее классификацию облаков см. в Атласе облаков (PDF).
  • T - Температура воздуха - температура, измеренная на высоте 2 м над землей.
  • Td - Температура точки росы - температура, при понижении до которой содержащийся в воздухе водяной пар достигнет насыщения.
  • f - Относительная влажность воздуха - влажноcть воздуха, измеренная на высоте 2 м над землей.
  • Te - Эффективная температура - температура, которую ощущает одетый по сезону человек в тени. Характеристика душности погоды. При расчете учитывается влияние влажности воздуха и скорости ветра на теплоощущения человека.
  • Tes - Эффективная температура на солнце - температура, которую ощущает человек, с поправкой на солнечный нагрев. Характеристика знойности погоды. Зависит от высоты солнца над горизонтом, облачности и скорости ветра. Ночью, в пасмурную погоду, а также при ветре 12 м/с и более поправка равна нулю.
  • P - Атмосферное давление - приведенное к уровню моря атмосферное давление.
  • Po - Атмосферное давление - измеренное на уровне метеостанции атмосферное давление.
  • Tmin - Минимальная температура - минимум температуры воздуха на высоте 2 м над землей.
  • Tmax - Максимальная температура - максимум температуры воздуха на высоте 2 м над землей.
  • R - Количество осадков - Количество выпавших осадков за период времени, мм. При наведении курсора мыши на число - период времени, за который выпало указанное количество осадков.
  • R24 - Количество осадков - Количество выпавших осадков за 24 часа, мм.
  • S - Снежный покров - Высота снежного покрова, см. При наведении курсора мыши на число - состояние снежного покрова и степень покрытия местности в баллах.